Year,Month,Day,Hour,Minute,Value (Times are PST for windspeed in km/hr)
2021,02,24,00,00,10.60
2021,02,24,00,01,4.60
2021,02,24,00,02,4.00
2021,02,24,00,03,5.50
2021,02,24,00,04,1.40
2021,02,24,00,05,2.80
2021,02,24,00,06,2.90
2021,02,24,00,07,6.60
2021,02,24,00,08,7.20
2021,02,24,00,09,6.30
2021,02,24,00,10,6.20
2021,02,24,00,11,7.30
2021,02,24,00,12,11.00
2021,02,24,00,13,8.90
2021,02,24,00,14,8.90
2021,02,24,00,15,3.40
2021,02,24,00,16,5.90
2021,02,24,00,17,7.90
2021,02,24,00,18,6.40
2021,02,24,00,19,3.00
2021,02,24,00,20,3.70
2021,02,24,00,21,8.70
2021,02,24,00,22,5.70
2021,02,24,00,23,6.70
2021,02,24,00,24,3.50
2021,02,24,00,25,3.30
2021,02,24,00,26,5.70
2021,02,24,00,27,9.70
2021,02,24,00,28,3.20
2021,02,24,00,29,5.60
2021,02,24,00,30,3.90
2021,02,24,00,31,7.20
2021,02,24,00,32,7.10
2021,02,24,00,33,8.20
2021,02,24,00,34,5.90
2021,02,24,00,35,4.80
2021,02,24,00,36,2.60
2021,02,24,00,37,6.50
2021,02,24,00,38,4.90
2021,02,24,00,39,5.50
2021,02,24,00,40,5.10
2021,02,24,00,41,4.60
2021,02,24,00,42,2.40
2021,02,24,00,43,3.70
2021,02,24,00,44,4.40
2021,02,24,00,45,3.90
2021,02,24,00,46,4.10
2021,02,24,00,47,4.10
2021,02,24,00,48,5.10
2021,02,24,00,49,3.10
2021,02,24,00,50,4.00
2021,02,24,00,51,4.60
2021,02,24,00,52,6.00
2021,02,24,00,53,6.20
2021,02,24,00,54,6.90
2021,02,24,00,55,7.60
2021,02,24,00,56,4.40
2021,02,24,00,57,5.90
2021,02,24,00,58,6.30
2021,02,24,00,59,5.00
2021,02,24,01,00,7.90
2021,02,24,01,01,6.60
2021,02,24,01,02,6.60
2021,02,24,01,03,4.90
2021,02,24,01,04,5.40
2021,02,24,01,05,10.70
2021,02,24,01,06,4.10
2021,02,24,01,07,3.20
2021,02,24,01,08,3.10
2021,02,24,01,09,4.40
2021,02,24,01,10,3.00
2021,02,24,01,11,1.70
2021,02,24,01,12,6.70
2021,02,24,01,13,4.50
2021,02,24,01,14,4.50
2021,02,24,01,15,4.90
2021,02,24,01,16,3.40
2021,02,24,01,17,2.60
2021,02,24,01,18,7.50
2021,02,24,01,19,3.80
2021,02,24,01,20,4.60
2021,02,24,01,21,3.20
2021,02,24,01,22,4.30
2021,02,24,01,23,3.70
2021,02,24,01,24,4.20
2021,02,24,01,25,3.20
2021,02,24,01,26,7.20
2021,02,24,01,27,13.60
2021,02,24,01,28,5.30
2021,02,24,01,29,3.90
2021,02,24,01,30,6.50
2021,02,24,01,31,5.60
2021,02,24,01,32,2.80
2021,02,24,01,33,7.20
2021,02,24,01,34,6.00
2021,02,24,01,35,4.10
2021,02,24,01,36,3.70
2021,02,24,01,37,5.50
2021,02,24,01,38,3.10
2021,02,24,01,39,2.80
2021,02,24,01,40,5.70
2021,02,24,01,41,4.20
2021,02,24,01,42,5.60
2021,02,24,01,43,5.50
2021,02,24,01,44,4.50
2021,02,24,01,45,4.80
2021,02,24,01,46,3.80
2021,02,24,01,47,2.40
2021,02,24,01,48,3.50
2021,02,24,01,49,4.20
2021,02,24,01,50,9.00
2021,02,24,01,51,5.90
2021,02,24,01,52,5.40
2021,02,24,01,53,3.50
2021,02,24,01,54,4.60
2021,02,24,01,55,5.20
2021,02,24,01,56,3.70
2021,02,24,01,57,3.70
2021,02,24,01,58,3.90
2021,02,24,01,59,5.70
2021,02,24,02,00,6.00
2021,02,24,02,01,4.60
2021,02,24,02,02,5.90
2021,02,24,02,03,5.10
2021,02,24,02,04,3.00
2021,02,24,02,05,2.10
2021,02,24,02,06,3.80
2021,02,24,02,07,6.10
2021,02,24,02,08,8.70
2021,02,24,02,09,5.00
2021,02,24,02,10,2.90
2021,02,24,02,11,2.60
2021,02,24,02,12,4.90
2021,02,24,02,13,4.10
2021,02,24,02,14,4.00
2021,02,24,02,15,4.50
2021,02,24,02,16,3.00
2021,02,24,02,17,3.00
2021,02,24,02,18,7.10
2021,02,24,02,19,8.60
2021,02,24,02,20,4.90
2021,02,24,02,21,6.70
2021,02,24,02,22,5.70
2021,02,24,02,23,5.20
2021,02,24,02,24,3.20
2021,02,24,02,25,4.40
2021,02,24,02,26,7.10
2021,02,24,02,27,10.60
2021,02,24,02,28,9.70
2021,02,24,02,29,7.90
2021,02,24,02,30,6.00
2021,02,24,02,31,5.10
2021,02,24,02,32,6.10
2021,02,24,02,33,9.30
2021,02,24,02,34,6.40
2021,02,24,02,35,3.10
2021,02,24,02,36,3.10
2021,02,24,02,37,4.40
2021,02,24,02,38,3.60
2021,02,24,02,39,5.10
2021,02,24,02,40,7.30
2021,02,24,02,41,7.00
2021,02,24,02,42,3.80
2021,02,24,02,43,5.20
2021,02,24,02,44,8.20
2021,02,24,02,45,7.10
2021,02,24,02,46,5.70
2021,02,24,02,47,7.30
2021,02,24,02,48,7.40
2021,02,24,02,49,8.00
2021,02,24,02,50,6.00
2021,02,24,02,51,8.50
2021,02,24,02,52,6.80
2021,02,24,02,53,4.50
2021,02,24,02,54,3.30
2021,02,24,02,55,2.40
2021,02,24,02,56,5.60
2021,02,24,02,57,7.30
2021,02,24,02,58,8.00
2021,02,24,02,59,4.50
2021,02,24,03,00,5.10
2021,02,24,03,01,7.20
2021,02,24,03,02,7.50
2021,02,24,03,03,8.80
2021,02,24,03,04,10.70
2021,02,24,03,05,9.30
2021,02,24,03,06,3.80
2021,02,24,03,07,3.80
2021,02,24,03,08,4.00
2021,02,24,03,09,5.20
2021,02,24,03,10,5.50
2021,02,24,03,11,3.80
2021,02,24,03,12,3.30
2021,02,24,03,13,4.60
2021,02,24,03,14,4.10
2021,02,24,03,15,2.20
2021,02,24,03,16,5.10
2021,02,24,03,17,6.00
2021,02,24,03,18,6.30
2021,02,24,03,19,2.90
2021,02,24,03,20,9.70
2021,02,24,03,21,4.90
2021,02,24,03,22,6.00
2021,02,24,03,23,6.30
2021,02,24,03,24,4.80
2021,02,24,03,25,3.00
2021,02,24,03,26,6.60
2021,02,24,03,27,4.10
2021,02,24,03,28,8.90
2021,02,24,03,29,5.20
2021,02,24,03,30,8.80
2021,02,24,03,31,5.10
2021,02,24,03,32,8.00
2021,02,24,03,33,5.60
2021,02,24,03,34,6.40
2021,02,24,03,35,3.40
2021,02,24,03,36,4.10
2021,02,24,03,37,6.00
2021,02,24,03,38,4.90
2021,02,24,03,39,4.80
2021,02,24,03,40,5.50
2021,02,24,03,41,3.40
2021,02,24,03,42,4.30
2021,02,24,03,43,6.70
2021,02,24,03,44,5.50
2021,02,24,03,45,1.40
2021,02,24,03,46,2.00
2021,02,24,03,47,5.50
2021,02,24,03,48,3.60
2021,02,24,03,49,4.80
2021,02,24,03,50,2.20
2021,02,24,03,51,4.10
2021,02,24,03,52,4.80
2021,02,24,03,53,4.10
2021,02,24,03,54,4.00
2021,02,24,03,55,5.00
2021,02,24,03,56,6.00
2021,02,24,03,57,3.20
2021,02,24,03,58,3.00
2021,02,24,03,59,12.50
2021,02,24,04,00,8.70
2021,02,24,04,01,5.30
2021,02,24,04,02,4.90
2021,02,24,04,03,6.40
2021,02,24,04,04,3.50
2021,02,24,04,05,6.00
2021,02,24,04,06,1.80
2021,02,24,04,07,5.50
2021,02,24,04,08,3.80
2021,02,24,04,09,3.10
2021,02,24,04,10,2.70
2021,02,24,04,11,5.10
2021,02,24,04,12,5.30
2021,02,24,04,13,4.50
2021,02,24,04,14,4.50
2021,02,24,04,15,6.40
2021,02,24,04,16,7.40
2021,02,24,04,17,4.80
2021,02,24,04,18,3.20
2021,02,24,04,19,2.90
2021,02,24,04,20,3.50
2021,02,24,04,21,3.30
2021,02,24,04,22,4.20
2021,02,24,04,23,3.10
2021,02,24,04,24,2.00
2021,02,24,04,25,3.60
2021,02,24,04,26,5.50
2021,02,24,04,27,4.50
2021,02,24,04,28,3.00
2021,02,24,04,29,1.50
2021,02,24,04,30,5.00
2021,02,24,04,31,2.90
2021,02,24,04,32,3.40
2021,02,24,04,33,4.40
2021,02,24,04,34,6.40
2021,02,24,04,35,4.30
2021,02,24,04,36,2.80
2021,02,24,04,37,3.00
2021,02,24,04,38,4.50
2021,02,24,04,39,2.70
2021,02,24,04,40,2.70
2021,02,24,04,41,1.80
2021,02,24,04,42,1.40
2021,02,24,04,43,4.40
2021,02,24,04,44,3.30
2021,02,24,04,45,1.40
2021,02,24,04,46,4.40
2021,02,24,04,47,4.80
2021,02,24,04,48,4.00
2021,02,24,04,49,3.30
2021,02,24,04,50,6.00
2021,02,24,04,51,4.40
2021,02,24,04,52,3.30
2021,02,24,04,53,4.30
2021,02,24,04,54,4.50
2021,02,24,04,55,4.00
2021,02,24,04,56,2.40
2021,02,24,04,57,1.30
2021,02,24,04,58,4.00
2021,02,24,04,59,2.00
2021,02,24,05,00,2.40
2021,02,24,05,01,2.40
2021,02,24,05,02,5.30
2021,02,24,05,03,6.30
2021,02,24,05,04,6.00
2021,02,24,05,05,4.40
2021,02,24,05,06,3.50
2021,02,24,05,07,3.60
2021,02,24,05,08,3.50
2021,02,24,05,09,2.50
2021,02,24,05,10,4.20
2021,02,24,05,11,3.40
2021,02,24,05,12,2.70
2021,02,24,05,13,5.20
2021,02,24,05,14,4.10
2021,02,24,05,15,3.60
2021,02,24,05,16,3.20
2021,02,24,05,17,3.30
2021,02,24,05,18,3.90
2021,02,24,05,19,4.40
2021,02,24,05,20,4.00
2021,02,24,05,21,2.80
2021,02,24,05,22,3.90
2021,02,24,05,23,3.50
2021,02,24,05,24,3.00
2021,02,24,05,25,2.60
2021,02,24,05,26,2.40
2021,02,24,05,27,3.70
2021,02,24,05,28,3.90
2021,02,24,05,29,3.10
2021,02,24,05,30,2.50
2021,02,24,05,31,1.60
2021,02,24,05,32,2.90
2021,02,24,05,33,2.60
2021,02,24,05,34,3.50
2021,02,24,05,35,3.20
2021,02,24,05,36,1.50
2021,02,24,05,37,2.60
2021,02,24,05,38,1.60
2021,02,24,05,39,2.00
2021,02,24,05,40,2.20
2021,02,24,05,41,2.20
2021,02,24,05,42,2.20
2021,02,24,05,43,1.40
2021,02,24,05,44,1.20
2021,02,24,05,45,1.90
2021,02,24,05,46,1.70
2021,02,24,05,47,1.60
2021,02,24,05,48,1.80
2021,02,24,05,49,1.50
2021,02,24,05,50,3.70
2021,02,24,05,51,3.90
2021,02,24,05,52,3.40
2021,02,24,05,53,1.30
2021,02,24,05,54,2.20
2021,02,24,05,55,1.60
2021,02,24,05,56,2.00
2021,02,24,05,57,0.60
2021,02,24,05,58,0.40
2021,02,24,05,59,1.20
2021,02,24,06,00,2.20
2021,02,24,06,01,2.80
2021,02,24,06,02,0.90
2021,02,24,06,03,2.40
2021,02,24,06,04,2.20
2021,02,24,06,05,2.50
2021,02,24,06,06,0.70
2021,02,24,06,07,3.60
2021,02,24,06,08,1.90
2021,02,24,06,09,1.70
2021,02,24,06,10,0.90
2021,02,24,06,11,1.80
2021,02,24,06,12,1.40
2021,02,24,06,13,1.30
2021,02,24,06,14,2.50
2021,02,24,06,15,2.90
2021,02,24,06,16,3.30
2021,02,24,06,17,3.40
2021,02,24,06,18,1.80
2021,02,24,06,19,3.40
2021,02,24,06,20,3.70
2021,02,24,06,21,3.30
2021,02,24,06,22,2.20
2021,02,24,06,23,1.30
2021,02,24,06,24,1.30
2021,02,24,06,25,2.10
2021,02,24,06,26,2.50
2021,02,24,06,27,3.80
2021,02,24,06,28,3.30
2021,02,24,06,29,4.00
2021,02,24,06,30,3.10
2021,02,24,06,31,1.90
2021,02,24,06,32,0.20
2021,02,24,06,33,1.90
2021,02,24,06,34,2.40
2021,02,24,06,35,3.40
2021,02,24,06,36,2.60
2021,02,24,06,37,4.10
2021,02,24,06,38,2.90
2021,02,24,06,39,1.60
2021,02,24,06,40,0.20
2021,02,24,06,41,1.10
2021,02,24,06,42,1.90
2021,02,24,06,43,0.40
2021,02,24,06,44,1.00
2021,02,24,06,45,0.00
2021,02,24,06,46,0.60
2021,02,24,06,47,2.10
2021,02,24,06,48,1.60
2021,02,24,06,49,0.10
2021,02,24,06,50,0.80
2021,02,24,06,51,0.10
2021,02,24,06,52,2.30
2021,02,24,06,53,1.40
2021,02,24,06,54,1.10
2021,02,24,06,55,1.70
2021,02,24,06,56,1.70
2021,02,24,06,57,1.00
2021,02,24,06,58,2.10
2021,02,24,06,59,1.80
2021,02,24,07,00,0.10
2021,02,24,07,01,1.40
2021,02,24,07,02,1.50
2021,02,24,07,03,0.00
2021,02,24,07,04,0.00
2021,02,24,07,05,0.10
2021,02,24,07,06,0.30
2021,02,24,07,07,0.80
2021,02,24,07,08,1.40
2021,02,24,07,09,1.70
2021,02,24,07,10,1.10
2021,02,24,07,11,1.80
2021,02,24,07,12,1.50
2021,02,24,07,13,1.70
2021,02,24,07,14,3.10
2021,02,24,07,15,3.10
2021,02,24,07,16,2.30
2021,02,24,07,17,1.40
2021,02,24,07,18,1.60
2021,02,24,07,19,1.60
2021,02,24,07,20,1.30
2021,02,24,07,21,1.80
2021,02,24,07,22,2.40
2021,02,24,07,23,2.50
2021,02,24,07,24,2.60
2021,02,24,07,25,0.80
2021,02,24,07,26,0.00
2021,02,24,07,27,1.40
2021,02,24,07,28,0.60
2021,02,24,07,29,0.80
2021,02,24,07,30,3.70
2021,02,24,07,31,4.10
2021,02,24,07,32,3.50
2021,02,24,07,33,2.50
2021,02,24,07,34,2.00
2021,02,24,07,35,2.40
2021,02,24,07,36,1.40
2021,02,24,07,37,1.80
2021,02,24,07,38,3.50
2021,02,24,07,39,2.10
2021,02,24,07,40,1.70
2021,02,24,07,41,1.60
2021,02,24,07,42,2.50
2021,02,24,07,43,1.60
2021,02,24,07,44,0.00
2021,02,24,07,45,0.20
2021,02,24,07,46,1.00
2021,02,24,07,47,2.90
2021,02,24,07,48,1.20
2021,02,24,07,49,0.20
2021,02,24,07,50,1.60
2021,02,24,07,51,1.70
2021,02,24,07,52,1.90
2021,02,24,07,53,1.60
2021,02,24,07,54,2.20
2021,02,24,07,55,2.40
2021,02,24,07,56,2.40
2021,02,24,07,57,4.00
2021,02,24,07,58,2.30
2021,02,24,07,59,1.70
2021,02,24,08,00,2.60
2021,02,24,08,01,1.60
2021,02,24,08,02,3.00
2021,02,24,08,03,2.80
2021,02,24,08,04,2.80
2021,02,24,08,05,3.00
2021,02,24,08,06,1.40
2021,02,24,08,07,2.00
2021,02,24,08,08,1.60
2021,02,24,08,09,2.10
2021,02,24,08,10,3.00
2021,02,24,08,11,1.90
2021,02,24,08,12,0.30
2021,02,24,08,13,0.00
2021,02,24,08,14,0.00
2021,02,24,08,15,0.10
2021,02,24,08,16,0.70
2021,02,24,08,17,0.00
2021,02,24,08,18,0.00
2021,02,24,08,19,0.00
2021,02,24,08,20,0.00
2021,02,24,08,21,0.00
2021,02,24,08,22,0.00
2021,02,24,08,23,0.00
2021,02,24,08,24,0.00
2021,02,24,08,25,0.00
2021,02,24,08,26,0.00
2021,02,24,08,27,0.00
2021,02,24,08,28,0.00
2021,02,24,08,29,0.00
2021,02,24,08,30,1.40
2021,02,24,08,31,2.40
2021,02,24,08,32,2.10
2021,02,24,08,33,1.90
2021,02,24,08,34,1.40
2021,02,24,08,35,2.00
2021,02,24,08,36,2.40
2021,02,24,08,37,4.50
2021,02,24,08,38,3.60
2021,02,24,08,39,4.50
2021,02,24,08,40,2.40
2021,02,24,08,41,2.40
2021,02,24,08,42,1.80
2021,02,24,08,43,1.80
2021,02,24,08,44,0.50
2021,02,24,08,45,1.80
2021,02,24,08,46,3.50
2021,02,24,08,47,2.90
2021,02,24,08,48,3.10
2021,02,24,08,49,4.20
2021,02,24,08,50,2.10
2021,02,24,08,51,0.70
2021,02,24,08,52,0.40
2021,02,24,08,53,0.20
2021,02,24,08,54,1.80
2021,02,24,08,55,1.70
2021,02,24,08,56,1.30
2021,02,24,08,57,2.00
2021,02,24,08,58,6.40
2021,02,24,08,59,2.80
2021,02,24,09,00,3.60
2021,02,24,09,01,2.30
2021,02,24,09,02,0.70
2021,02,24,09,03,0.00
2021,02,24,09,04,0.00
2021,02,24,09,05,0.00
2021,02,24,09,06,0.90
2021,02,24,09,07,1.60
2021,02,24,09,08,2.30
2021,02,24,09,09,2.60
2021,02,24,09,10,1.40
2021,02,24,09,11,0.10
2021,02,24,09,12,0.60
2021,02,24,09,13,0.10
2021,02,24,09,14,0.90
2021,02,24,09,15,1.30
2021,02,24,09,16,0.10
2021,02,24,09,17,2.90
2021,02,24,09,18,2.90
2021,02,24,09,19,3.40
2021,02,24,09,20,4.50
2021,02,24,09,21,5.20
2021,02,24,09,22,2.90
2021,02,24,09,23,2.10
2021,02,24,09,24,2.00
2021,02,24,09,25,1.80
2021,02,24,09,26,4.00
2021,02,24,09,27,5.10
2021,02,24,09,28,2.80
2021,02,24,09,29,1.40
2021,02,24,09,30,0.60
2021,02,24,09,31,0.60
2021,02,24,09,32,1.20
2021,02,24,09,33,0.30
2021,02,24,09,34,0.60
2021,02,24,09,35,0.40
2021,02,24,09,36,0.80
2021,02,24,09,37,0.70
2021,02,24,09,38,5.90
2021,02,24,09,39,4.40
2021,02,24,09,40,2.30
2021,02,24,09,41,2.10
2021,02,24,09,42,2.00
2021,02,24,09,43,3.70
2021,02,24,09,44,2.50
2021,02,24,09,45,1.80
2021,02,24,09,46,3.10
2021,02,24,09,47,1.70
2021,02,24,09,48,4.70
2021,02,24,09,49,2.40
2021,02,24,09,50,1.20
2021,02,24,09,51,4.00
2021,02,24,09,52,2.80
2021,02,24,09,53,1.40
2021,02,24,09,54,3.10
2021,02,24,09,55,3.00
2021,02,24,09,56,4.60
2021,02,24,09,57,1.40
2021,02,24,09,58,3.30
2021,02,24,09,59,5.60
2021,02,24,10,00,6.40
2021,02,24,10,01,4.40
2021,02,24,10,02,2.80
2021,02,24,10,03,0.60
2021,02,24,10,04,1.90
2021,02,24,10,05,2.80
2021,02,24,10,06,2.70
2021,02,24,10,07,1.10
2021,02,24,10,08,1.40
2021,02,24,10,09,6.60
2021,02,24,10,10,4.20
2021,02,24,10,11,3.40
2021,02,24,10,12,1.80
2021,02,24,10,13,1.10
2021,02,24,10,14,0.50
2021,02,24,10,15,1.00
2021,02,24,10,16,4.50
2021,02,24,10,17,1.50
2021,02,24,10,18,1.20
2021,02,24,10,19,4.10
2021,02,24,10,20,1.00
2021,02,24,10,21,0.50
2021,02,24,10,22,0.00
2021,02,24,10,23,0.00
2021,02,24,10,24,0.00
2021,02,24,10,25,2.00
2021,02,24,10,26,3.60
2021,02,24,10,27,2.20
2021,02,24,10,28,5.40
2021,02,24,10,29,2.10
2021,02,24,10,30,0.50
2021,02,24,10,31,3.20
2021,02,24,10,32,1.30
2021,02,24,10,33,1.40
2021,02,24,10,34,0.70
2021,02,24,10,35,1.70
2021,02,24,10,36,2.30
2021,02,24,10,37,3.30
2021,02,24,10,38,1.00
2021,02,24,10,39,0.00
2021,02,24,10,40,1.90
2021,02,24,10,41,0.70
2021,02,24,10,42,1.10
2021,02,24,10,43,1.80
2021,02,24,10,44,2.10
2021,02,24,10,45,1.90
2021,02,24,10,46,4.30
2021,02,24,10,47,5.60
2021,02,24,10,48,2.10
2021,02,24,10,49,3.30
2021,02,24,10,50,3.40
2021,02,24,10,51,4.10
2021,02,24,10,52,2.70
2021,02,24,10,53,3.90
2021,02,24,10,54,2.00
2021,02,24,10,55,1.20
2021,02,24,10,56,0.50
2021,02,24,10,57,0.00
2021,02,24,10,58,0.40
2021,02,24,10,59,2.00
2021,02,24,11,00,0.90
2021,02,24,11,01,0.20
2021,02,24,11,02,3.50
2021,02,24,11,03,1.30
2021,02,24,11,04,2.50
2021,02,24,11,05,0.80
2021,02,24,11,06,0.00
2021,02,24,11,07,1.30
2021,02,24,11,08,0.20
2021,02,24,11,09,2.70
2021,02,24,11,10,1.80
2021,02,24,11,11,5.10
2021,02,24,11,12,2.90
2021,02,24,11,13,5.60
2021,02,24,11,14,2.10
2021,02,24,11,15,0.30
2021,02,24,11,16,1.30
2021,02,24,11,17,1.00
2021,02,24,11,18,1.00
2021,02,24,11,19,1.40
2021,02,24,11,20,0.20
2021,02,24,11,21,0.00
2021,02,24,11,22,0.50
2021,02,24,11,23,2.80
2021,02,24,11,24,1.30
2021,02,24,11,25,2.60
2021,02,24,11,26,3.40
2021,02,24,11,27,2.20
2021,02,24,11,28,3.20
2021,02,24,11,29,1.40
2021,02,24,11,30,0.50
2021,02,24,11,31,2.00
2021,02,24,11,32,2.50
2021,02,24,11,33,2.00
2021,02,24,11,34,0.00
2021,02,24,11,35,1.80
2021,02,24,11,36,3.40
2021,02,24,11,37,1.00
2021,02,24,11,38,2.90
2021,02,24,11,39,1.20
2021,02,24,11,40,0.90
2021,02,24,11,41,3.50
2021,02,24,11,42,2.30
2021,02,24,11,43,1.70
2021,02,24,11,44,0.80
2021,02,24,11,45,0.40
2021,02,24,11,46,1.00
2021,02,24,11,47,1.60
2021,02,24,11,48,1.30
2021,02,24,11,49,1.40
2021,02,24,11,50,3.00
2021,02,24,11,51,2.70
2021,02,24,11,52,1.60
2021,02,24,11,53,2.40
2021,02,24,11,54,1.90
2021,02,24,11,55,2.60
2021,02,24,11,56,2.20
2021,02,24,11,57,1.70
2021,02,24,11,58,1.20
2021,02,24,11,59,2.60
2021,02,24,12,00,2.00
2021,02,24,12,01,1.50
2021,02,24,12,02,2.00
2021,02,24,12,03,0.90
2021,02,24,12,04,1.70
2021,02,24,12,05,1.20
2021,02,24,12,06,1.70
2021,02,24,12,07,1.40
2021,02,24,12,08,2.10
2021,02,24,12,09,2.00
2021,02,24,12,10,2.00
2021,02,24,12,11,3.20
2021,02,24,12,12,1.30
2021,02,24,12,13,1.10
2021,02,24,12,14,2.10
2021,02,24,12,15,2.50
2021,02,24,12,16,2.10
2021,02,24,12,17,1.00
2021,02,24,12,18,2.30
2021,02,24,12,19,2.10
2021,02,24,12,20,2.20
2021,02,24,12,21,3.00
2021,02,24,12,22,2.40
2021,02,24,12,23,3.20
2021,02,24,12,24,2.00
2021,02,24,12,25,2.30
2021,02,24,12,26,2.00
2021,02,24,12,27,1.30
2021,02,24,12,28,1.20
2021,02,24,12,29,1.00
2021,02,24,12,30,1.10
2021,02,24,12,31,2.10
2021,02,24,12,32,3.60
2021,02,24,12,33,2.40
2021,02,24,12,34,0.60
2021,02,24,12,35,1.40
2021,02,24,12,36,1.90
2021,02,24,12,37,2.40
2021,02,24,12,38,2.90
2021,02,24,12,39,0.70
2021,02,24,12,40,2.50
2021,02,24,12,41,2.20
2021,02,24,12,42,3.00
2021,02,24,12,43,3.00
2021,02,24,12,44,1.10
2021,02,24,12,45,1.00
2021,02,24,12,46,0.80
2021,02,24,12,47,2.00
2021,02,24,12,48,2.90
2021,02,24,12,49,2.30
2021,02,24,12,50,2.20
2021,02,24,12,51,1.20
2021,02,24,12,52,1.40
2021,02,24,12,53,2.20
2021,02,24,12,54,2.70
2021,02,24,12,55,1.00
2021,02,24,12,56,2.10
2021,02,24,12,57,0.70
2021,02,24,12,58,0.50
2021,02,24,12,59,2.10
2021,02,24,13,00,2.00
2021,02,24,13,01,2.00
2021,02,24,13,02,1.10
2021,02,24,13,03,2.50
2021,02,24,13,04,1.40
2021,02,24,13,05,1.70
2021,02,24,13,06,3.00
2021,02,24,13,07,3.50
2021,02,24,13,08,2.00
2021,02,24,13,09,2.50
2021,02,24,13,10,1.40
2021,02,24,13,11,2.10
2021,02,24,13,12,1.30
2021,02,24,13,13,2.00
2021,02,24,13,14,1.90
2021,02,24,13,15,1.00
2021,02,24,13,16,2.30
2021,02,24,13,17,1.00
2021,02,24,13,18,3.10
2021,02,24,13,19,2.40
2021,02,24,13,20,2.00
2021,02,24,13,21,1.10
2021,02,24,13,22,2.50
2021,02,24,13,23,2.00
2021,02,24,13,24,1.10
2021,02,24,13,25,1.70
2021,02,24,13,26,1.70
2021,02,24,13,27,2.10
2021,02,24,13,28,2.10
2021,02,24,13,29,1.70
2021,02,24,13,30,1.00
2021,02,24,13,31,1.90
2021,02,24,13,32,0.70
2021,02,24,13,33,1.20
2021,02,24,13,34,0.60
2021,02,24,13,35,2.40
2021,02,24,13,36,2.00
2021,02,24,13,37,3.30
2021,02,24,13,38,2.30
2021,02,24,13,39,2.20
2021,02,24,13,40,1.20
2021,02,24,13,41,1.30
2021,02,24,13,42,0.70
2021,02,24,13,43,1.20
2021,02,24,13,44,1.80
2021,02,24,13,45,2.60
2021,02,24,13,46,1.80
2021,02,24,13,47,2.20
2021,02,24,13,48,0.60
2021,02,24,13,49,3.20
2021,02,24,13,50,3.30
2021,02,24,13,51,3.20
2021,02,24,13,52,2.00
2021,02,24,13,53,2.40
2021,02,24,13,54,0.70
2021,02,24,13,55,4.30
2021,02,24,13,56,3.80
2021,02,24,13,57,1.60
2021,02,24,13,58,1.10
2021,02,24,13,59,2.50
2021,02,24,14,00,1.80
2021,02,24,14,01,0.80
2021,02,24,14,02,1.40
2021,02,24,14,03,0.80
2021,02,24,14,04,2.40
2021,02,24,14,05,2.20
2021,02,24,14,06,2.90
2021,02,24,14,07,3.30
2021,02,24,14,08,0.50
2021,02,24,14,09,1.60
2021,02,24,14,10,1.70
2021,02,24,14,11,1.60
2021,02,24,14,12,1.00
2021,02,24,14,13,0.50
2021,02,24,14,14,3.10
2021,02,24,14,15,2.40
2021,02,24,14,16,1.70
2021,02,24,14,17,2.60
2021,02,24,14,18,1.70
2021,02,24,14,19,1.40
2021,02,24,14,20,1.90
2021,02,24,14,21,1.30
2021,02,24,14,22,2.40
2021,02,24,14,23,1.40
2021,02,24,14,24,2.30
2021,02,24,14,25,1.50
2021,02,24,14,26,1.40
2021,02,24,14,27,3.30
2021,02,24,14,28,1.00
2021,02,24,14,29,0.90
2021,02,24,14,30,1.90
2021,02,24,14,31,2.00
2021,02,24,14,32,1.60
2021,02,24,14,33,1.30
2021,02,24,14,34,1.50
2021,02,24,14,35,1.90
2021,02,24,14,36,1.90
2021,02,24,14,37,1.20
2021,02,24,14,38,1.70
2021,02,24,14,39,2.10
2021,02,24,14,40,1.70
2021,02,24,14,41,1.10
2021,02,24,14,42,1.60
2021,02,24,14,43,2.20
2021,02,24,14,44,1.10
2021,02,24,14,45,1.30
2021,02,24,14,46,3.40
2021,02,24,14,47,1.80
2021,02,24,14,48,1.00
2021,02,24,14,49,2.10
2021,02,24,14,50,1.60
2021,02,24,14,51,1.50
2021,02,24,14,52,2.00
2021,02,24,14,53,3.40
2021,02,24,14,54,2.00
2021,02,24,14,55,1.90
2021,02,24,14,56,2.60
2021,02,24,14,57,2.00
2021,02,24,14,58,1.30
2021,02,24,14,59,1.90
2021,02,24,15,00,2.20
2021,02,24,15,01,2.30
2021,02,24,15,02,1.80
2021,02,24,15,03,1.60
2021,02,24,15,04,0.20
2021,02,24,15,05,2.40
2021,02,24,15,06,2.50
2021,02,24,15,07,2.40
2021,02,24,15,08,1.00
2021,02,24,15,09,2.00
2021,02,24,15,10,2.40
2021,02,24,15,11,2.60
2021,02,24,15,12,3.20
2021,02,24,15,13,3.80
2021,02,24,15,14,2.10
2021,02,24,15,15,3.60
2021,02,24,15,16,2.40
2021,02,24,15,17,3.60
2021,02,24,15,18,4.00
2021,02,24,15,19,2.40
2021,02,24,15,20,3.20
2021,02,24,15,21,3.50
2021,02,24,15,22,4.30
2021,02,24,15,23,4.80
2021,02,24,15,24,4.10
2021,02,24,15,25,1.40
2021,02,24,15,26,1.60
2021,02,24,15,27,3.30
2021,02,24,15,28,3.60
2021,02,24,15,29,2.00
2021,02,24,15,30,3.00
2021,02,24,15,31,2.30
2021,02,24,15,32,3.20
2021,02,24,15,33,3.50
2021,02,24,15,34,2.00
2021,02,24,15,35,1.30
2021,02,24,15,36,3.00
2021,02,24,15,37,2.60
2021,02,24,15,38,2.20
2021,02,24,15,39,0.50
2021,02,24,15,40,2.70
2021,02,24,15,41,4.60
2021,02,24,15,42,3.00
2021,02,24,15,43,1.10
2021,02,24,15,44,0.20
2021,02,24,15,45,0.50
2021,02,24,15,46,0.30
2021,02,24,15,47,1.00
2021,02,24,15,48,1.50
2021,02,24,15,49,2.00
2021,02,24,15,50,3.00
2021,02,24,15,51,3.50
2021,02,24,15,52,4.10
2021,02,24,15,53,3.80
2021,02,24,15,54,3.30
2021,02,24,15,55,3.20
2021,02,24,15,56,2.70
2021,02,24,15,57,2.90
2021,02,24,15,58,2.80
2021,02,24,15,59,1.70
2021,02,24,16,00,3.00
2021,02,24,16,01,2.70
2021,02,24,16,02,2.80
2021,02,24,16,03,2.50
2021,02,24,16,04,1.60
2021,02,24,16,05,4.50
2021,02,24,16,06,3.50
2021,02,24,16,07,2.10
2021,02,24,16,08,4.30
2021,02,24,16,09,3.00
2021,02,24,16,10,2.70
2021,02,24,16,11,3.60
2021,02,24,16,12,3.30
2021,02,24,16,13,1.80
2021,02,24,16,14,1.60
2021,02,24,16,15,3.50
2021,02,24,16,16,3.60
2021,02,24,16,17,2.20
2021,02,24,16,18,1.80
2021,02,24,16,19,0.30
2021,02,24,16,20,0.10
2021,02,24,16,21,0.80
2021,02,24,16,22,2.20
2021,02,24,16,23,1.00
2021,02,24,16,24,1.80
2021,02,24,16,25,3.70
2021,02,24,16,26,3.40
2021,02,24,16,27,2.80
2021,02,24,16,28,3.20
2021,02,24,16,29,1.40
2021,02,24,16,30,2.10
2021,02,24,16,31,2.50
2021,02,24,16,32,3.20
2021,02,24,16,33,2.80
2021,02,24,16,34,3.40
2021,02,24,16,35,3.60
2021,02,24,16,36,3.60
2021,02,24,16,37,3.30
2021,02,24,16,38,3.90
2021,02,24,16,39,4.40
2021,02,24,16,40,2.80
2021,02,24,16,41,3.60
2021,02,24,16,42,3.60
2021,02,24,16,43,2.80
2021,02,24,16,44,3.00
2021,02,24,16,45,2.20
2021,02,24,16,46,3.80
2021,02,24,16,47,3.40
2021,02,24,16,48,1.70
2021,02,24,16,49,2.50
2021,02,24,16,50,2.40
2021,02,24,16,51,3.50
2021,02,24,16,52,2.40
2021,02,24,16,53,3.70
2021,02,24,16,54,2.50
2021,02,24,16,55,1.60
2021,02,24,16,56,4.00
2021,02,24,16,57,2.80
2021,02,24,16,58,2.60
2021,02,24,16,59,2.10
2021,02,24,17,00,5.00
2021,02,24,17,01,3.70
2021,02,24,17,02,2.60
2021,02,24,17,03,1.20
2021,02,24,17,04,0.90
2021,02,24,17,05,1.80
2021,02,24,17,06,1.80
2021,02,24,17,07,1.80
2021,02,24,17,08,1.80
2021,02,24,17,09,1.90
2021,02,24,17,10,4.10
2021,02,24,17,11,2.90
2021,02,24,17,12,1.40
2021,02,24,17,13,0.30
2021,02,24,17,14,0.00
2021,02,24,17,15,0.20
2021,02,24,17,16,0.50
2021,02,24,17,17,0.00
2021,02,24,17,18,2.10
2021,02,24,17,19,0.40
2021,02,24,17,20,0.00
2021,02,24,17,21,1.80
2021,02,24,17,22,1.60
2021,02,24,17,23,1.50
2021,02,24,17,24,1.70
2021,02,24,17,25,1.80
2021,02,24,17,26,2.40
2021,02,24,17,27,3.60
2021,02,24,17,28,2.60
2021,02,24,17,29,1.70
2021,02,24,17,30,1.80
2021,02,24,17,31,2.30
2021,02,24,17,32,2.40
2021,02,24,17,33,2.70
2021,02,24,17,34,2.60
2021,02,24,17,35,3.00
2021,02,24,17,36,1.90
2021,02,24,17,37,3.10
2021,02,24,17,38,2.50
2021,02,24,17,39,2.90
2021,02,24,17,40,2.20
2021,02,24,17,41,4.00
2021,02,24,17,42,3.30
2021,02,24,17,43,3.00
2021,02,24,17,44,2.50
2021,02,24,17,45,2.00
2021,02,24,17,46,1.10
2021,02,24,17,47,1.10
2021,02,24,17,48,0.00
2021,02,24,17,49,0.00
2021,02,24,17,50,0.00
2021,02,24,17,51,0.00
2021,02,24,17,52,0.00
2021,02,24,17,53,0.00
2021,02,24,17,54,0.00
2021,02,24,17,55,0.20
2021,02,24,17,56,0.10
2021,02,24,17,57,0.50
2021,02,24,17,58,0.50
2021,02,24,17,59,0.30
2021,02,24,18,00,1.50
2021,02,24,18,01,1.60
2021,02,24,18,02,0.50
2021,02,24,18,03,1.80
2021,02,24,18,04,1.80
2021,02,24,18,05,3.00
2021,02,24,18,06,1.40